Location: Peterborough
(44.3091°N, 78.3197°W)
Time: 05:23:02
(UTC-04:00)

Transit 2A - All Passes

Search period start: 22 March 2023 00:00
Search period end: 01 April 2023 00:00
Orbit: 591 x 964 km, 66.7° (Epoch: 21 March)

Date Brightness Start Highest point End Pass type
(mag) Time Alt. Az. Time Alt. Az. Time Alt. Az.
22 Mar - 05:47:29 10° SSE 05:51:31 22° ESE 05:55:52 10° ENE visible
22 Mar - 07:28:48 10° SW 07:34:08 61° NW 07:40:05 10° NNE daylight
22 Mar - 09:15:07 10° WNW 09:18:43 17° NNW 09:22:30 10° N daylight
22 Mar - 12:48:50 10° N 12:51:12 12° NNE 12:53:36 10° NE daylight
22 Mar - 14:30:39 10° NNW 14:36:26 35° NE 14:42:10 10° ESE daylight
22 Mar - 16:13:46 10° NW 16:19:58 54° WSW 16:26:01 10° S daylight
23 Mar - 05:14:14 10° SE 05:17:14 15° ESE 05:20:22 10° ENE visible
23 Mar - 06:54:06 10° SSW 06:59:29 84° WNW 07:05:29 10° NNE daylight
23 Mar - 08:39:30 10° W 08:43:41 21° NW 08:48:08 10° NNE daylight
23 Mar - 12:15:05 10° N 12:16:01 10° NNE 12:16:58 10° NNE daylight
23 Mar - 13:56:12 10° NNW 14:01:32 28° NE 14:06:53 10° E daylight
23 Mar - 15:39:03 10° NW 15:45:26 75° WSW 15:51:39 10° SSE daylight
23 Mar - 17:24:52 10° WNW 17:27:36 13° W 17:30:19 10° SW daylight
24 Mar - 06:19:35 10° SSW 06:24:54 70° ESE 06:30:49 10° NE visible
24 Mar - 08:04:04 10° W 08:08:43 26° NW 08:13:44 10° NNE daylight
24 Mar - 13:21:46 10° NNW 13:26:36 22° NE 13:31:25 10° E daylight
24 Mar - 15:04:23 10° NNW 15:10:49 82° ENE 15:17:05 10° SE daylight
24 Mar - 16:49:01 10° WNW 16:53:19 19° WSW 16:57:32 10° SSW daylight
25 Mar - 05:45:16 10° S 05:50:23 48° ESE 05:56:03 10° NE visible
25 Mar - 07:28:50 10° WSW 07:33:50 33° NW 07:39:17 10° NNE daylight
25 Mar - 09:17:13 10° NW 09:19:06 11° NNW 09:21:01 10° N daylight
25 Mar - 12:47:24 10° N 12:51:35 18° NNE 12:55:47 10° ENE daylight
25 Mar - 14:29:48 10° NNW 14:36:08 62° NE 14:42:21 10° SE daylight
25 Mar - 16:13:45 10° NW 16:18:58 27° WSW 16:24:03 10° SSW daylight
26 Mar - 05:11:11 10° S 05:15:56 34° ESE 05:21:10 10° NE visible
26 Mar - 06:53:45 10° WSW 06:59:00 44° NW 07:04:47 10° NNE daylight
26 Mar - 08:41:05 10° NW 08:43:57 14° NNW 08:46:55 10° N daylight
26 Mar - 12:13:05 10° N 12:16:30 15° NNE 12:19:57 10° ENE daylight
26 Mar - 13:55:15 10° NNW 14:01:24 46° NE 14:07:25 10° ESE daylight
26 Mar - 15:38:45 10° NW 15:44:34 38° WSW 15:50:12 10° S daylight
27 Mar - 04:37:24 10° SSE 04:41:35 23° ESE 04:46:05 10° NE visible
27 Mar - 06:18:51 10° SW 06:24:15 60° NW 06:30:14 10° NNE visible
27 Mar - 08:05:14 10° WNW 08:08:51 17° NNW 08:12:39 10° N daylight
27 Mar - 11:38:52 10° N 11:41:22 12° NNE 11:43:53 10° NE daylight
27 Mar - 13:20:45 10° NNW 13:26:35 36° NE 13:32:19 10° ESE daylight
27 Mar - 15:03:54 10° NW 15:10:05 53° WSW 15:16:04 10° S daylight
28 Mar - 04:04:04 10° SE 04:07:17 16° ESE 04:10:39 10° ENE visible
28 Mar - 05:44:08 10° SW 05:49:34 82° WNW 05:55:38 10° NNE visible
28 Mar - 07:29:36 10° W 07:33:49 20° NW 07:38:16 10° NNE daylight
28 Mar - 11:04:58 10° N 11:06:11 11° NNE 11:07:23 10° NNE daylight
28 Mar - 12:46:17 10° NNW 12:51:42 28° NE 12:57:03 10° E daylight
28 Mar - 14:29:10 10° NW 14:35:33 73° WSW 14:41:43 10° SSE daylight
28 Mar - 16:15:12 10° WNW 16:17:41 12° W 16:20:08 10° WSW daylight
29 Mar - 03:32:18 10° ESE 03:33:03 10° E 03:33:46 10° E visible
29 Mar - 05:09:35 10° SSW 05:14:58 72° ESE 05:20:58 10° NE visible
29 Mar - 06:54:09 10° W 06:58:50 26° NW 07:03:52 10° NNE daylight
29 Mar - 12:11:51 10° NNW 12:16:44 22° NE 12:21:36 10° E daylight
29 Mar - 13:54:30 10° NNW 14:00:56 84° ENE 14:07:10 10° SSE daylight
29 Mar - 15:39:14 10° WNW 15:43:24 19° WSW 15:47:29 10° SW daylight
30 Mar - 04:35:15 10° S 04:40:26 50° ESE 04:46:13 10° NE visible
30 Mar - 06:18:54 10° WSW 06:23:56 33° NW 06:29:24 10° NNE visible
30 Mar - 08:07:21 10° NW 08:09:14 11° NNW 08:11:09 10° N daylight
30 Mar - 11:37:28 10° N 11:41:43 18° NNE 11:45:59 10° ENE daylight
30 Mar - 13:19:54 10° NNW 13:26:15 63° NE 13:32:26 10° SE daylight
30 Mar - 15:03:55 10° NW 15:09:03 26° WSW 15:14:02 10° SSW daylight
31 Mar - 04:01:08 10° S 04:05:59 35° ESE 04:11:20 10° NE visible
31 Mar - 05:43:48 10° WSW 05:49:06 43° NW 05:54:55 10° NNE visible
31 Mar - 07:31:12 10° NW 07:34:04 14° NNW 07:37:02 10° N daylight
31 Mar - 11:03:08 10° N 11:06:39 15° NNE 11:10:10 10° ENE daylight
31 Mar - 12:45:21 10° NNW 12:51:31 48° NE 12:57:31 10° SE daylight
31 Mar - 14:28:54 10° NW 14:34:39 37° WSW 14:40:12 10° S daylight
